SL-16 DEB, 24866

Orbit data source: Space-Track

SL-16 DEB, 24866 is space debris in LEO originally from a launch on Wed, 04 Sep 1996 UTC launched from the Tyuratam Missile And Space Complex (TTMTR). Debris objects in space refer to the collection of defunct objects orbiting the Earth. Examples of debris include non-operational satellites, rocket bodies, and fragments generated from explosions, collisions, or faulty payload assembly.

Loading next visibility...
Identifier
24866, 1996-051H
Orbit
LEO
Last TLE update
12 hours ago
Origin
Manufacturer
Unknown
Mission
Spacecraft
Bus & Motor
Unknown
Mass
Unknown
Launch date (UTC)
1996-09-04 (29 years ago)
Launch vehicle
Unknown
Launch site
Tyuratam Missile And Space Complex (TTMTR)
Object type
Payload
Rocket body
Debris
Shape & HBR
Unknown
Radar Cross Section
Small (<0.1 m²)

Expand to show TLE details & history

TLE from 12 hours ago
0 SL-16 DEB
1 24866U 96051H   25186.85787346 -.00000046  00000-0 -14995-6 0  9993
2 24866  71.1258 346.7235 0059299  86.7285 274.0618 14.10839366483703
Epoch: 2025-07-05T20:35Z
TLE epoch observation values (Epoch: 2025-07-05T20:35:20.266Z)
Latitude
-0.00004°
Longitude
113.79915°
Altitude
856.119 km
Speed
7.426 km/s
True Right ascension
23h 06m 53s
True Declination
0° 00' 00"
Sunlit
Object was in daylight at epoch
Visualization orbit readout
Latitude
-70.39029°
Longitude
40.14286°
Altitude
924.492 km
Speed
7.367 km/s
Apparent Right ascension
09h 35m 05s
Apparent Declination
-74° 51' 06"
Sunlit
Object is in full shadow
Visualization observer readout
Local Sidereal Time
20:03:43
Azimuth
189.824° SSW
Elevation
-53.521°
Doppler factor
1
Orbital elements
Apogee altitude
897.306 km
Perigee altitude
811.529 km
Semi-major axis
7,232.554 km
Eccentricity
0.00593
Inclination
71.1258°
RAAN
346.7235°
Arg. of periapsis
86.7285°
True anomaly
Unknown
Mean anomaly
274.0618°
Eccentric anomaly
Unknown
Mean motion
3.52863 °/min
Orbital period
102.02 mins
BSTAR
-1.4995e-7
Loading maneuver chart data...
Loading SW <> Apogee altitude chart data...
Loading historical data...
Loading historical data...
Loading historical data...
Loading historical data...
Loading historical data...
Loading historical data...
Loading historical data...

SL-16 DEB Visibility forecast

Observer location: undefined°, undefined°

Span
Click to sort rows by Start time (UTC) header in descending order
Start Az.
Max El. time (UTC)
Max El. Az.
Max El.
End time (UTC)
End Az.
10 mins2025-07-06 12:00:56.745Z199.03° SSW2025-07-06 12:05:56.745Z164.784° S44.702°2025-07-06 12:10:56.745Z24.266° NE
4 mins2025-07-06 13:49:56.745Z295.01° NW2025-07-06 13:50:56.745Z307.049° NW14.183°2025-07-06 13:53:56.745Z341.391° N
8 mins2025-07-06 20:58:56.745Z6.353° NNE2025-07-06 21:01:56.745Z56.545° ENE30.087°2025-07-06 21:06:56.745Z124.37° SE
8 mins2025-07-06 22:42:56.745Z306.397° NW2025-07-06 22:45:56.745Z263.209° W26.71°2025-07-06 22:50:56.745Z197.606° SSW
|